Location: Bastelaar
(51.0950°N, 3.8602°E)
Time: 01:21:05
(UTC+00:00)

ARIANE 6 FM1 Upper Stage - Pass Details

Date: 31 January 2026
Orbit: 522 x 609 km, 62.0° (Epoch: 13 February)

Event Time Altitude Azimuth Distance (km) Brightness Sun altitude
Rises 19:13:22 0° 285° (WNW) 2,681 7.4 -25.1°
Reaches altitude 10° 19:16:07 10° 304° (NW) 1,781 6.0 -25.5°
Enters shadow 19:18:49 18° 347° (NNW) 1,326 4.7 -25.9°
